Dauntless Aviation
Airports Asia China
ZGSZ
SZX

Shenzhen Bao'an International Airport

Shenzhen, CHINA

Airport Info
Suggest Updated Information for this Airport

Location

Latitude / Longitude: 22°38'21"N / 113°48'39"E
  22°38.358'N / 113°48.66'E
  22.6393 / 113.8110

Nearby radio navigation aids

QJ SHENZHEN NDB. 155.7° 10.4nm from QJ to field.
SZX SHENZHEN VOR/DME on field.

Runway Information

Runway 15 /33

Dimensions: 11155 x 148 ft.
Surface: ASP
 
Runway 15
Runway 33
Latitude: 22.651889 22.624778
Longitude: 113.803903 113.819431
Elevation: 12 ft. 12 ft.
Runway true heading: 153 333
 

Instrument Procedures

  Aerodrome Chart
  Aerodrome Chart
  Aerodrome Chart
  Aerodrome Parking/Docking Chart

STARs (Standard Terminal Arrivals)

  STAR RNAV Rwy 15
  STAR RNAV Rwy 16
  STAR RNAV Rwy 33
  STAR RNAV Rwy 34
  STAR Rwy 15/16
  STAR Rwy 33/34

IAPs (Instrument Approach Procedures)

  Aircraft Standard Push Back Procedure
  Aerodrome Obstacle Chart Rwy 15/33
  Aerodrome Obstacle Chart Rwy 16/34
  RNAV ILS/DME Rwy 15
  RNAV ILS/DME Rwy 16
  RNAV ILS/DME Rwy 33
  RNAV ILS/DME Rwy 34
  ILS/DME Rwy 15
  ILS/DME Rwy 16
  ILS/DME Rwy 33
  ILS/DME Rwy 33
  ILS/DME Rwy 34
  ILS/DME Rwy 34

Departure Procedures

  SID RNAV Rwy 15
  SID RNAV Rwy 16
  SID RNAV Rwy 33
  SID RNAV Rwy 34
  SID Rwy 15
  SID Rwy 16
  SID Rwy 33
  SID Rwy 34
Satellite photo at:
Airport distance calculator
From:
Weather Reports

METAR

ZGSZ

ZGSZ 190600Z 25003MPS 230V290 9999 SCT040 23/20 Q1015 NOSIG
VHHH
20.2nm SE
VHHH 190630Z VRB03KT 220V010 9999 FEW012 SCT030 25/19 Q1015 TEMPO 27010KT
VMMC
32.0nm S
VMMC 190630Z 10004KT 060V140 9999 FEW010 SCT025 22/20 Q1015 NOSIG

TAF

ZGSZ
TAF ZGSZ 190318Z 1906/2006 12004MPS 6000 FEW020 BKN050 TX23/1907Z TN18/1922Z
VHHH
20.2nm SE
TAF VHHH 190500Z 1906/2012 09010KT 9999 FEW020 SCT030 TX25/1907Z TX27/2006Z TN21/1923Z TEMPO 1908/1912 4000 SHRA FEW015CB SCT025 TEMPO 2000/2012 16010KT
VMMC
32.0nm S
TAF VMMC 190502Z 1906/2012 13010KT 8000 FEW010 SCT025 TEMPO 1906/1910 VRB03KT 4000 BR TEMPO 1916/2004 2500 BR PROB40 1920/1924 0900 FG VV001 TEMPO 2009/2012 3500 BR
Safelog

 

Dauntless Aviation

© 2007-2019 Dauntless Aviation, all rights reserved
Information provided via PilotNav comes from a variety of official and unofficial data sources. As errors are possible, do not use PilotNav for primary flight planning purposes. Verify any information that you receive via PilotNav with current and canonical charts and other official documents. The material in this database is subject to database copyrights held by Dauntless Aviation and may not be copied without the express permission of Dauntless Aviation - licenses for use of part of all of this data are available for purchase; enquire via the Dauntless Aviation helpdesk. A number of mechanisms and markers exist in the database to protect against and identify infringement / copyright. Automated queries against this website are stictly prohibited, and all activity is logged and analyzed.